contact:dominique.lefevre@mio.osupytheas.fr, maurice.libes@osupytheas.fr, didier.mallarino@osupytheas.fr
Project:EMSO http://www.emso-fr.org/EMSO-France
Depth: 2436.0 m
Title:EMSO Ligure Ouest : Data MII capteur MICROCAT
DateTime_Computer,Latitude,Longitude,Temperature,Conductivity,Pressure,DateTime_Instrument
DateTime_Computer,Latitude,Longitude,degC,S m-1,dbar,DateTime_Instrument
2020-06-09T00:01:13Z,42.805,6.029,13.2982,4.59998,2470.203,2020-6-09T02:01:57Z
2020-06-09T00:04:16Z,42.805,6.029,13.2979,4.59996,2470.217,2020-6-09T02:05:00Z
2020-06-09T00:07:20Z,42.805,6.029,13.2979,4.60001,2470.203,2020-6-09T02:08:04Z
2020-06-09T00:10:23Z,42.805,6.029,13.2977,4.59994,2470.203,2020-6-09T02:11:07Z
2020-06-09T00:13:26Z,42.805,6.029,13.2990,4.60001,2470.194,2020-6-09T02:14:10Z
2020-06-09T00:16:29Z,42.805,6.029,13.2979,4.59988,2470.227,2020-6-09T02:17:13Z
2020-06-09T00:19:33Z,42.805,6.029,13.2982,4.59986,2470.194,2020-6-09T02:20:16Z
2020-06-09T00:22:36Z,42.805,6.029,13.2983,4.60006,2470.18,2020-6-09T02:23:20Z
2020-06-09T00:25:39Z,42.805,6.029,13.2975,4.59987,2470.171,2020-6-09T02:26:23Z
2020-06-09T00:28:43Z,42.805,6.029,13.2975,4.59996,2470.217,2020-6-09T02:29:26Z
2020-06-09T00:31:46Z,42.805,6.029,13.2991,4.60012,2470.171,2020-6-09T02:32:30Z
2020-06-09T00:34:49Z,42.805,6.029,13.2990,4.60014,2470.18,2020-6-09T02:35:33Z
2020-06-09T00:37:53Z,42.805,6.029,13.2981,4.59996,2470.156,2020-6-09T02:38:36Z
2020-06-09T00:40:56Z,42.805,6.029,13.2982,4.59997,2470.156,2020-6-09T02:41:40Z
2020-06-09T00:43:59Z,42.805,6.029,13.2978,4.59996,2470.156,2020-6-09T02:44:43Z
2020-06-09T00:47:02Z,42.805,6.029,13.2990,4.60006,2470.217,2020-6-09T02:47:46Z
2020-06-09T00:50:06Z,42.805,6.029,13.2979,4.60001,2470.18,2020-6-09T02:50:49Z
2020-06-09T00:53:09Z,42.805,6.029,13.2990,4.60003,2470.18,2020-6-09T02:53:53Z
2020-06-09T00:56:12Z,42.805,6.029,13.2986,4.60002,2470.18,2020-6-09T02:56:56Z
2020-06-09T00:59:15Z,42.805,6.029,13.2990,4.60009,2470.133,2020-6-09T02:59:59Z
2020-06-09T01:02:19Z,42.805,6.029,13.2982,4.60003,2470.156,2020-6-09T03:03:03Z
2020-06-09T01:05:22Z,42.805,6.029,13.2983,4.59999,2470.156,2020-6-09T03:06:06Z
2020-06-09T01:08:25Z,42.805,6.029,13.2995,4.60003,2470.171,2020-6-09T03:09:09Z
2020-06-09T01:11:28Z,42.805,6.029,13.2976,4.60006,2470.171,2020-6-09T03:12:12Z
2020-06-09T01:14:31Z,42.805,6.029,13.2978,4.59992,2470.133,2020-6-09T03:15:15Z
2020-06-09T01:17:35Z,42.805,6.029,13.2978,4.59988,2470.156,2020-6-09T03:18:19Z
2020-06-09T01:20:38Z,42.805,6.029,13.2979,4.59986,2470.156,2020-6-09T03:21:22Z
2020-06-09T01:23:41Z,42.805,6.029,13.2978,4.59984,2470.133,2020-6-09T03:24:25Z
2020-06-09T01:26:44Z,42.805,6.029,13.2983,4.60002,2470.133,2020-6-09T03:27:28Z
2020-06-09T01:29:48Z,42.805,6.029,13.2978,4.59986,2470.11,2020-6-09T03:30:31Z
2020-06-09T01:32:51Z,42.805,6.029,13.2990,4.60001,2470.147,2020-6-09T03:33:35Z
2020-06-09T01:35:54Z,42.805,6.029,13.2993,4.60014,2470.11,2020-6-09T03:36:38Z
2020-06-09T01:38:57Z,42.805,6.029,13.2979,4.60008,2470.133,2020-6-09T03:39:41Z
2020-06-09T01:42:01Z,42.805,6.029,13.2986,4.60006,2470.133,2020-6-09T03:42:44Z
2020-06-09T01:45:04Z,42.805,6.029,13.2974,4.59983,2470.124,2020-6-09T03:45:48Z
2020-06-09T01:48:07Z,42.805,6.029,13.2976,4.59997,2470.133,2020-6-09T03:48:51Z
2020-06-09T01:51:10Z,42.805,6.029,13.2981,4.60011,2470.1,2020-6-09T03:51:54Z
2020-06-09T01:54:13Z,42.805,6.029,13.2974,4.59986,2470.11,2020-6-09T03:54:57Z
2020-06-09T01:57:17Z,42.805,6.029,13.2985,4.59996,2470.133,2020-6-09T03:58:00Z
2020-06-09T02:00:20Z,42.805,6.029,13.2981,4.60006,2470.133,2020-6-09T04:01:04Z
2020-06-09T02:03:23Z,42.805,6.029,13.2989,4.60009,2470.11,2020-6-09T04:04:07Z
2020-06-09T02:06:26Z,42.805,6.029,13.2991,4.60010,2470.11,2020-6-09T04:07:10Z
2020-06-09T02:09:29Z,42.805,6.029,13.2979,4.60021,2470.124,2020-6-09T04:10:13Z
2020-06-09T02:12:33Z,42.805,6.029,13.2989,4.60014,2470.11,2020-6-09T04:13:17Z
2020-06-09T02:15:36Z,42.805,6.029,13.2999,4.60022,2470.124,2020-6-09T04:16:20Z
2020-06-09T02:18:39Z,42.805,6.029,13.2990,4.60029,2470.087,2020-6-09T04:19:23Z
2020-06-09T02:21:42Z,42.805,6.029,13.2980,4.60019,2470.1,2020-6-09T04:22:26Z
2020-06-09T02:24:46Z,42.805,6.029,13.2983,4.60011,2470.133,2020-6-09T04:25:29Z
2020-06-09T02:27:49Z,42.805,6.029,13.2987,4.60009,2470.077,2020-6-09T04:28:33Z
2020-06-09T02:30:52Z,42.805,6.029,13.2990,4.60011,2470.11,2020-6-09T04:31:36Z
2020-06-09T02:33:55Z,42.805,6.029,13.2983,4.60008,2470.087,2020-6-09T04:34:39Z
2020-06-09T02:36:59Z,42.805,6.029,13.2990,4.60001,2470.124,2020-6-09T04:37:43Z
2020-06-09T02:40:02Z,42.805,6.029,13.2972,4.59987,2470.124,2020-6-09T04:40:46Z
2020-06-09T02:43:05Z,42.805,6.029,13.2975,4.59995,2470.087,2020-6-09T04:43:49Z
2020-06-09T02:46:08Z,42.805,6.029,13.2989,4.60009,2470.087,2020-6-09T04:46:52Z
2020-06-09T02:49:12Z,42.805,6.029,13.2987,4.60004,2470.063,2020-6-09T04:49:56Z
2020-06-09T02:52:15Z,42.805,6.029,13.2978,4.59995,2470.063,2020-6-09T04:52:59Z
2020-06-09T02:55:18Z,42.805,6.029,13.2995,4.60013,2470.1,2020-6-09T04:56:02Z
2020-06-09T02:58:21Z,42.805,6.029,13.2993,4.60021,2470.053,2020-6-09T04:59:05Z
2020-06-09T03:01:25Z,42.805,6.029,13.2991,4.60025,2470.087,2020-6-09T05:02:08Z
2020-06-09T03:04:28Z,42.805,6.029,13.2998,4.60016,2470.087,2020-6-09T05:05:12Z
2020-06-09T03:07:31Z,42.805,6.029,13.2997,4.60006,2470.087,2020-6-09T05:08:15Z
2020-06-09T03:10:34Z,42.805,6.029,13.2985,4.60027,2470.1,2020-6-09T05:11:18Z
2020-06-09T03:13:37Z,42.805,6.029,13.2980,4.60003,2470.087,2020-6-09T05:14:21Z
2020-06-09T03:16:41Z,42.805,6.029,13.2998,4.60004,2470.087,2020-6-09T05:17:24Z
2020-06-09T03:19:44Z,42.805,6.029,13.2991,4.59993,2470.1,2020-6-09T05:20:28Z
2020-06-09T03:22:47Z,42.805,6.029,13.2995,4.60023,2470.077,2020-6-09T05:23:31Z
2020-06-09T03:25:50Z,42.805,6.029,13.2986,4.60035,2470.087,2020-6-09T05:26:34Z
2020-06-09T03:28:54Z,42.805,6.029,13.2991,4.60024,2470.053,2020-6-09T05:29:37Z
2020-06-09T03:31:57Z,42.805,6.029,13.2985,4.60005,2470.063,2020-6-09T05:32:41Z
2020-06-09T03:35:00Z,42.805,6.029,13.2979,4.59992,2470.077,2020-6-09T05:35:44Z
2020-06-09T03:38:03Z,42.805,6.029,13.2976,4.60010,2470.053,2020-6-09T05:38:47Z
2020-06-09T03:41:06Z,42.805,6.029,13.2988,4.60019,2470.04,2020-6-09T05:41:50Z
2020-06-09T03:44:10Z,42.805,6.029,13.2993,4.60026,2470.053,2020-6-09T05:44:54Z
2020-06-09T03:47:13Z,42.805,6.029,13.2998,4.60040,2470.1,2020-6-09T05:47:57Z
2020-06-09T03:50:16Z,42.805,6.029,13.2990,4.60031,2470.063,2020-6-09T05:51:00Z
2020-06-09T03:53:20Z,42.805,6.029,13.2998,4.60041,2470.063,2020-6-09T05:54:04Z
2020-06-09T03:56:23Z,42.805,6.029,13.2996,4.60031,2470.063,2020-6-09T05:57:07Z
2020-06-09T03:59:26Z,42.805,6.029,13.2998,4.60014,2470.053,2020-6-09T06:00:10Z
2020-06-09T04:02:29Z,42.805,6.029,13.3011,4.60029,2470.087,2020-6-09T06:03:13Z
2020-06-09T04:05:33Z,42.805,6.029,13.3006,4.60016,2470.063,2020-6-09T06:06:17Z
2020-06-09T04:08:36Z,42.805,6.029,13.2982,4.60024,2470.077,2020-6-09T06:09:20Z
2020-06-09T04:11:39Z,42.805,6.029,13.2979,4.60003,2470.04,2020-6-09T06:12:23Z
2020-06-09T04:14:43Z,42.805,6.029,13.2995,4.60025,2470.063,2020-6-09T06:15:26Z
2020-06-09T04:17:46Z,42.805,6.029,13.2996,4.60018,2470.063,2020-6-09T06:18:30Z
2020-06-09T04:20:49Z,42.805,6.029,13.2995,4.60019,2470.04,2020-6-09T06:21:33Z
2020-06-09T04:23:52Z,42.805,6.029,13.2986,4.60031,2470.077,2020-6-09T06:24:36Z
2020-06-09T04:26:55Z,42.805,6.029,13.2995,4.60011,2470.017,2020-6-09T06:27:39Z
2020-06-09T04:29:59Z,42.805,6.029,13.3006,4.60014,2470.087,2020-6-09T06:30:43Z
2020-06-09T04:33:02Z,42.805,6.029,13.2994,4.60019,2470.077,2020-6-09T06:33:46Z
2020-06-09T04:36:05Z,42.805,6.029,13.2979,4.59996,2470.077,2020-6-09T06:36:49Z
2020-06-09T04:39:09Z,42.805,6.029,13.2984,4.60008,2470.053,2020-6-09T06:39:53Z
2020-06-09T04:42:12Z,42.805,6.029,13.2992,4.60021,2470.04,2020-6-09T06:42:56Z
2020-06-09T04:45:15Z,42.805,6.029,13.2993,4.60003,2470.053,2020-6-09T06:45:59Z
2020-06-09T04:48:18Z,42.805,6.029,13.3005,4.60017,2470.063,2020-6-09T06:49:02Z
2020-06-09T04:51:22Z,42.805,6.029,13.2984,4.60019,2470.077,2020-6-09T06:52:05Z
2020-06-09T04:54:25Z,42.805,6.029,13.2999,4.60014,2470.087,2020-6-09T06:55:09Z
2020-06-09T04:57:28Z,42.805,6.029,13.2990,4.60014,2470.053,2020-6-09T06:58:12Z
2020-06-09T05:00:31Z,42.805,6.029,13.2990,4.60016,2470.017,2020-6-09T07:01:15Z
2020-06-09T05:03:35Z,42.805,6.029,13.2997,4.60017,2470.017,2020-6-09T07:04:19Z
2020-06-09T05:06:38Z,42.805,6.029,13.2986,4.60011,2470.063,2020-6-09T07:07:22Z
2020-06-09T05:09:41Z,42.805,6.029,13.2980,4.60024,2470.053,2020-6-09T07:10:25Z
2020-06-09T05:12:44Z,42.805,6.029,13.2975,4.59991,2470.053,2020-6-09T07:13:28Z
2020-06-09T05:15:48Z,42.805,6.029,13.2981,4.60006,2470.077,2020-6-09T07:16:32Z
2020-06-09T05:18:51Z,42.805,6.029,13.2987,4.60005,2470.04,2020-6-09T07:19:35Z
2020-06-09T05:21:54Z,42.805,6.029,13.2973,4.59996,2470.077,2020-6-09T07:22:38Z
2020-06-09T05:24:57Z,42.805,6.029,13.2979,4.60001,2470.04,2020-6-09T07:25:41Z
2020-06-09T05:28:01Z,42.805,6.029,13.2986,4.60005,2470.053,2020-6-09T07:28:45Z
2020-06-09T05:31:04Z,42.805,6.029,13.2978,4.60001,2470.063,2020-6-09T07:31:48Z
2020-06-09T05:34:07Z,42.805,6.029,13.2993,4.60014,2470.087,2020-6-09T07:34:51Z
2020-06-09T05:37:10Z,42.805,6.029,13.2978,4.60017,2470.073,2020-6-09T07:37:54Z
2020-06-09T05:40:14Z,42.805,6.029,13.2987,4.60019,2470.087,2020-6-09T07:40:58Z
2020-06-09T05:43:17Z,42.805,6.029,13.2999,4.60035,2470.063,2020-6-09T07:44:01Z
2020-06-09T05:46:20Z,42.805,6.029,13.2995,4.60016,2470.087,2020-6-09T07:47:04Z
2020-06-09T05:49:23Z,42.805,6.029,13.2986,4.60012,2470.087,2020-6-09T07:50:07Z
2020-06-09T05:52:27Z,42.805,6.029,13.2988,4.60015,2470.087,2020-6-09T07:53:11Z
2020-06-09T05:55:30Z,42.805,6.029,13.2979,4.60015,2470.077,2020-6-09T07:56:14Z
2020-06-09T05:58:33Z,42.805,6.029,13.2990,4.60029,2470.063,2020-6-09T07:59:17Z
2020-06-09T06:01:36Z,42.805,6.029,13.2993,4.60014,2470.1,2020-6-09T08:02:20Z
2020-06-09T06:04:40Z,42.805,6.029,13.2983,4.60031,2470.053,2020-6-09T08:05:24Z
2020-06-09T06:07:43Z,42.805,6.029,13.2983,4.60033,2470.04,2020-6-09T08:08:27Z
2020-06-09T06:10:46Z,42.805,6.029,13.2982,4.60000,2470.087,2020-6-09T08:11:30Z
2020-06-09T06:13:49Z,42.805,6.029,13.2985,4.60008,2470.053,2020-6-09T08:14:33Z
2020-06-09T06:16:53Z,42.805,6.029,13.2985,4.60013,2470.04,2020-6-09T08:17:37Z
2020-06-09T06:19:56Z,42.805,6.029,13.2994,4.60009,2470.04,2020-6-09T08:20:40Z
2020-06-09T06:22:59Z,42.805,6.029,13.2982,4.60023,2470.026,2020-6-09T08:23:43Z
2020-06-09T06:26:02Z,42.805,6.029,13.2979,4.59999,2470.063,2020-6-09T08:26:46Z
2020-06-09T06:29:06Z,42.805,6.029,13.2984,4.60002,2470.063,2020-6-09T08:29:50Z
2020-06-09T06:32:09Z,42.805,6.029,13.2983,4.60006,2470.087,2020-6-09T08:32:53Z
2020-06-09T06:35:12Z,42.805,6.029,13.2980,4.60009,2470.1,2020-6-09T08:35:56Z
2020-06-09T06:38:16Z,42.805,6.029,13.2979,4.60000,2470.053,2020-6-09T08:38:59Z
2020-06-09T06:41:19Z,42.805,6.029,13.2977,4.59998,2470.096,2020-6-09T08:42:03Z
2020-06-09T06:44:22Z,42.805,6.029,13.2974,4.59997,2470.077,2020-6-09T08:45:06Z
2020-06-09T06:47:25Z,42.805,6.029,13.2977,4.60005,2470.087,2020-6-09T08:48:09Z
2020-06-09T06:50:29Z,42.805,6.029,13.2977,4.60002,2470.1,2020-6-09T08:51:12Z
2020-06-09T06:53:32Z,42.805,6.029,13.2983,4.60019,2470.124,2020-6-09T08:54:16Z
2020-06-09T06:56:35Z,42.805,6.029,13.2982,4.60014,2470.11,2020-6-09T08:57:19Z
2020-06-09T06:59:38Z,42.805,6.029,13.2979,4.59997,2470.11,2020-6-09T09:00:22Z
2020-06-09T07:02:42Z,42.805,6.029,13.2975,4.59996,2470.11,2020-6-09T09:03:25Z
2020-06-09T07:05:45Z,42.805,6.029,13.2971,4.59988,2470.11,2020-6-09T09:06:29Z
2020-06-09T07:08:48Z,42.805,6.029,13.2977,4.59991,2470.077,2020-6-09T09:09:32Z
2020-06-09T07:11:51Z,42.805,6.029,13.2977,4.59989,2470.11,2020-6-09T09:12:35Z
2020-06-09T07:14:54Z,42.805,6.029,13.2977,4.59987,2470.11,2020-6-09T09:15:38Z
2020-06-09T07:17:58Z,42.805,6.029,13.2982,4.59996,2470.087,2020-6-09T09:18:42Z
2020-06-09T07:21:01Z,42.805,6.029,13.2977,4.59995,2470.11,2020-6-09T09:21:45Z
2020-06-09T07:24:04Z,42.805,6.029,13.2977,4.59989,2470.133,2020-6-09T09:24:48Z
2020-06-09T07:27:07Z,42.805,6.029,13.2976,4.59999,2470.124,2020-6-09T09:27:51Z
2020-06-09T07:30:11Z,42.805,6.029,13.2981,4.59996,2470.133,2020-6-09T09:30:55Z
2020-06-09T07:33:14Z,42.805,6.029,13.2976,4.60006,2470.11,2020-6-09T09:33:58Z
2020-06-09T07:36:17Z,42.805,6.029,13.2984,4.59999,2470.133,2020-6-09T09:37:01Z
2020-06-09T07:39:21Z,42.805,6.029,13.2979,4.59994,2470.11,2020-6-09T09:40:04Z
2020-06-09T07:42:24Z,42.805,6.029,13.2971,4.60011,2470.147,2020-6-09T09:43:08Z
2020-06-09T07:45:27Z,42.805,6.029,13.2976,4.60014,2470.133,2020-6-09T09:46:11Z
2020-06-09T07:48:30Z,42.805,6.029,13.2984,4.60007,2470.147,2020-6-09T09:49:14Z
2020-06-09T07:51:33Z,42.805,6.029,13.2980,4.59999,2470.124,2020-6-09T09:52:17Z
2020-06-09T07:54:37Z,42.805,6.029,13.2980,4.60001,2470.11,2020-6-09T09:55:21Z
2020-06-09T07:57:40Z,42.805,6.029,13.2974,4.59992,2470.147,2020-6-09T09:58:24Z
2020-06-09T08:00:43Z,42.805,6.029,13.2986,4.59996,2470.147,2020-6-09T10:01:27Z
2020-06-09T08:03:46Z,42.805,6.029,13.2979,4.60006,2470.171,2020-6-09T10:04:30Z
2020-06-09T08:06:50Z,42.805,6.029,13.2986,4.59996,2470.147,2020-6-09T10:07:34Z
2020-06-09T08:09:53Z,42.805,6.029,13.2982,4.59990,2470.147,2020-6-09T10:10:37Z
2020-06-09T08:12:56Z,42.805,6.029,13.2983,4.60011,2470.147,2020-6-09T10:13:40Z
2020-06-09T08:16:00Z,42.805,6.029,13.2991,4.60020,2470.133,2020-6-09T10:16:44Z
2020-06-09T08:19:03Z,42.805,6.029,13.2975,4.60002,2470.147,2020-6-09T10:19:47Z
2020-06-09T08:22:06Z,42.805,6.029,13.2986,4.59996,2470.133,2020-6-09T10:22:50Z
2020-06-09T08:25:09Z,42.805,6.029,13.2977,4.60003,2470.171,2020-6-09T10:25:53Z
2020-06-09T08:28:13Z,42.805,6.029,13.2973,4.60010,2470.156,2020-6-09T10:28:57Z
2020-06-09T08:31:16Z,42.805,6.029,13.2982,4.59997,2470.156,2020-6-09T10:32:00Z
2020-06-09T08:34:19Z,42.805,6.029,13.2981,4.60001,2470.133,2020-6-09T10:35:03Z
2020-06-09T08:37:22Z,42.805,6.029,13.2972,4.59992,2470.156,2020-6-09T10:38:06Z
2020-06-09T08:40:26Z,42.805,6.029,13.2979,4.59999,2470.156,2020-6-09T10:41:10Z
2020-06-09T08:43:29Z,42.805,6.029,13.2976,4.59987,2470.147,2020-6-09T10:44:13Z
2020-06-09T08:46:32Z,42.805,6.029,13.2979,4.59989,2470.133,2020-6-09T10:47:16Z
2020-06-09T08:49:35Z,42.805,6.029,13.2977,4.59991,2470.203,2020-6-09T10:50:19Z
2020-06-09T08:52:39Z,42.805,6.029,13.2972,4.59986,2470.147,2020-6-09T10:53:22Z
2020-06-09T08:55:42Z,42.805,6.029,13.2982,4.59991,2470.203,2020-6-09T10:56:26Z
2020-06-09T08:58:45Z,42.805,6.029,13.2979,4.59989,2470.156,2020-6-09T10:59:29Z
2020-06-09T09:01:48Z,42.805,6.029,13.2974,4.59984,2470.124,2020-6-09T11:02:32Z
2020-06-09T09:04:51Z,42.805,6.029,13.2977,4.59983,2470.147,2020-6-09T11:05:35Z
2020-06-09T09:07:55Z,42.805,6.029,13.2979,4.59988,2470.171,2020-6-09T11:08:39Z
2020-06-09T09:10:58Z,42.805,6.029,13.2975,4.59986,2470.156,2020-6-09T11:11:42Z
2020-06-09T09:14:01Z,42.805,6.029,13.2972,4.59986,2470.156,2020-6-09T11:14:45Z
2020-06-09T09:17:05Z,42.805,6.029,13.2977,4.59991,2470.171,2020-6-09T11:17:48Z
2020-06-09T09:20:08Z,42.805,6.029,13.2974,4.59991,2470.156,2020-6-09T11:20:52Z
2020-06-09T09:23:11Z,42.805,6.029,13.2974,4.59988,2470.11,2020-6-09T11:23:55Z
2020-06-09T09:26:14Z,42.805,6.029,13.2968,4.59986,2470.156,2020-6-09T11:26:58Z
2020-06-09T09:29:18Z,42.805,6.029,13.2974,4.59994,2470.147,2020-6-09T11:30:02Z
2020-06-09T09:32:21Z,42.805,6.029,13.2977,4.59987,2470.171,2020-6-09T11:33:05Z
2020-06-09T09:35:24Z,42.805,6.029,13.2981,4.59986,2470.171,2020-6-09T11:36:08Z
2020-06-09T09:38:27Z,42.805,6.029,13.2979,4.59995,2470.156,2020-6-09T11:39:11Z
2020-06-09T09:41:31Z,42.805,6.029,13.2975,4.59986,2470.156,2020-6-09T11:42:15Z
2020-06-09T09:44:34Z,42.805,6.029,13.2982,4.59999,2470.18,2020-6-09T11:45:18Z
2020-06-09T09:47:37Z,42.805,6.029,13.2979,4.59990,2470.133,2020-6-09T11:48:21Z
2020-06-09T09:50:40Z,42.805,6.029,13.2976,4.59989,2470.156,2020-6-09T11:51:24Z
2020-06-09T09:53:44Z,42.805,6.029,13.2974,4.59989,2470.194,2020-6-09T11:54:28Z
2020-06-09T09:56:47Z,42.805,6.029,13.2979,4.59988,2470.133,2020-6-09T11:57:31Z
2020-06-09T09:59:50Z,42.805,6.029,13.2972,4.59984,2470.156,2020-6-09T12:00:34Z
2020-06-09T10:02:53Z,42.805,6.029,13.2976,4.59983,2470.143,2020-6-09T12:03:37Z
2020-06-09T10:05:56Z,42.805,6.029,13.2978,4.59990,2470.133,2020-6-09T12:06:40Z
2020-06-09T10:09:00Z,42.805,6.029,13.2975,4.59990,2470.147,2020-6-09T12:09:44Z
2020-06-09T10:12:03Z,42.805,6.029,13.2976,4.59987,2470.11,2020-6-09T12:12:47Z
2020-06-09T10:15:06Z,42.805,6.029,13.2974,4.59990,2470.133,2020-6-09T12:15:50Z
2020-06-09T10:18:10Z,42.805,6.029,13.2971,4.59990,2470.133,2020-6-09T12:18:54Z
2020-06-09T10:21:13Z,42.805,6.029,13.2988,4.60003,2470.156,2020-6-09T12:21:57Z
2020-06-09T10:24:16Z,42.805,6.029,13.2976,4.59988,2470.147,2020-6-09T12:25:00Z
2020-06-09T10:27:20Z,42.805,6.029,13.2974,4.59986,2470.133,2020-6-09T12:28:03Z
2020-06-09T10:30:23Z,42.805,6.029,13.2979,4.59993,2470.11,2020-6-09T12:31:07Z
2020-06-09T10:33:26Z,42.805,6.029,13.2985,4.60003,2470.133,2020-6-09T12:34:10Z
2020-06-09T10:36:29Z,42.805,6.029,13.2976,4.60003,2470.156,2020-6-09T12:37:13Z
2020-06-09T10:39:33Z,42.805,6.029,13.2977,4.59992,2470.11,2020-6-09T12:40:17Z
2020-06-09T10:42:36Z,42.805,6.029,13.2974,4.59994,2470.124,2020-6-09T12:43:20Z
2020-06-09T10:45:39Z,42.805,6.029,13.2974,4.59991,2470.11,2020-6-09T12:46:23Z
2020-06-09T10:48:42Z,42.805,6.029,13.2981,4.59990,2470.133,2020-6-09T12:49:26Z
2020-06-09T10:51:46Z,42.805,6.029,13.2975,4.59992,2470.133,2020-6-09T12:52:30Z
2020-06-09T10:54:49Z,42.805,6.029,13.2977,4.59996,2470.11,2020-6-09T12:55:33Z
2020-06-09T10:57:52Z,42.805,6.029,13.2976,4.59986,2470.11,2020-6-09T12:58:36Z
2020-06-09T11:00:55Z,42.805,6.029,13.2971,4.59984,2470.133,2020-6-09T13:01:39Z
2020-06-09T11:03:59Z,42.805,6.029,13.2974,4.59987,2470.147,2020-6-09T13:04:43Z
2020-06-09T11:07:02Z,42.805,6.029,13.2976,4.59984,2470.171,2020-6-09T13:07:46Z
2020-06-09T11:10:05Z,42.805,6.029,13.2975,4.59989,2470.11,2020-6-09T13:10:49Z
2020-06-09T11:13:08Z,42.805,6.029,13.2975,4.59990,2470.133,2020-6-09T13:13:52Z
2020-06-09T11:16:12Z,42.805,6.029,13.2978,4.59991,2470.087,2020-6-09T13:16:55Z
2020-06-09T11:19:15Z,42.805,6.029,13.2970,4.59981,2470.133,2020-6-09T13:19:59Z
2020-06-09T11:22:18Z,42.805,6.029,13.2974,4.59987,2470.1,2020-6-09T13:23:02Z
2020-06-09T11:25:22Z,42.805,6.029,13.2974,4.59989,2470.147,2020-6-09T13:26:06Z
2020-06-09T11:28:25Z,42.805,6.029,13.2979,4.60002,2470.119,2020-6-09T13:29:09Z
2020-06-09T11:31:28Z,42.805,6.029,13.2990,4.59998,2470.124,2020-6-09T13:32:12Z
2020-06-09T11:34:32Z,42.805,6.029,13.2971,4.59985,2470.11,2020-6-09T13:35:16Z
2020-06-09T11:37:35Z,42.805,6.029,13.2978,4.59990,2470.087,2020-6-09T13:38:19Z
2020-06-09T11:40:38Z,42.805,6.029,13.2981,4.59986,2470.1,2020-6-09T13:41:22Z
2020-06-09T11:43:41Z,42.805,6.029,13.2982,4.59992,2470.11,2020-6-09T13:44:25Z
2020-06-09T11:46:45Z,42.805,6.029,13.2982,4.59997,2470.1,2020-6-09T13:47:29Z
2020-06-09T11:49:48Z,42.805,6.029,13.2981,4.59993,2470.063,2020-6-09T13:50:32Z
2020-06-09T11:52:51Z,42.805,6.029,13.2976,4.59999,2470.087,2020-6-09T13:53:35Z
2020-06-09T11:55:55Z,42.805,6.029,13.2982,4.59998,2470.087,2020-6-09T13:56:38Z
2020-06-09T11:58:58Z,42.805,6.029,13.2976,4.59999,2470.073,2020-6-09T13:59:42Z
2020-06-09T12:02:01Z,42.805,6.029,13.2977,4.59998,2470.053,2020-6-09T14:02:45Z
2020-06-09T12:05:04Z,42.805,6.029,13.2978,4.59988,2470.087,2020-6-09T14:05:48Z
2020-06-09T12:08:07Z,42.805,6.029,13.2979,4.59997,2470.124,2020-6-09T14:08:51Z
2020-06-09T12:11:11Z,42.805,6.029,13.2974,4.59985,2470.063,2020-6-09T14:11:54Z
2020-06-09T12:14:14Z,42.805,6.029,13.2982,4.60012,2470.087,2020-6-09T14:14:58Z
2020-06-09T12:17:17Z,42.805,6.029,13.2975,4.60002,2470.124,2020-6-09T14:18:01Z
2020-06-09T12:20:20Z,42.805,6.029,13.2985,4.60003,2470.04,2020-6-09T14:21:04Z
2020-06-09T12:23:24Z,42.805,6.029,13.2982,4.59988,2470.087,2020-6-09T14:24:07Z
2020-06-09T12:26:27Z,42.805,6.029,13.2975,4.59987,2470.087,2020-6-09T14:27:11Z
2020-06-09T12:29:30Z,42.805,6.029,13.2974,4.59983,2470.063,2020-6-09T14:30:14Z
2020-06-09T12:32:33Z,42.805,6.029,13.2974,4.59987,2470.087,2020-6-09T14:33:17Z
2020-06-09T12:35:37Z,42.805,6.029,13.2974,4.59989,2470.063,2020-6-09T14:36:20Z
2020-06-09T12:38:40Z,42.805,6.029,13.2974,4.59996,2470.1,2020-6-09T14:39:24Z
2020-06-09T12:41:43Z,42.805,6.029,13.2977,4.59991,2470.077,2020-6-09T14:42:27Z
2020-06-09T12:44:46Z,42.805,6.029,13.2977,4.59986,2470.077,2020-6-09T14:45:30Z
2020-06-09T12:47:50Z,42.805,6.029,13.2975,4.59985,2470.1,2020-6-09T14:48:33Z
2020-06-09T12:50:53Z,42.805,6.029,13.2976,4.59995,2470.063,2020-6-09T14:51:37Z
2020-06-09T12:53:56Z,42.805,6.029,13.2979,4.59986,2470.063,2020-6-09T14:54:40Z
2020-06-09T12:56:59Z,42.805,6.029,13.2979,4.59991,2470.053,2020-6-09T14:57:43Z
2020-06-09T13:00:02Z,42.805,6.029,13.2976,4.60006,2470.077,2020-6-09T15:00:46Z
2020-06-09T13:03:06Z,42.805,6.029,13.2974,4.59994,2470.077,2020-6-09T15:03:50Z
2020-06-09T13:06:09Z,42.805,6.029,13.2979,4.60008,2470.087,2020-6-09T15:06:53Z
2020-06-09T13:09:12Z,42.805,6.029,13.2979,4.59999,2470.077,2020-6-09T15:09:56Z
2020-06-09T13:12:16Z,42.805,6.029,13.2979,4.59987,2470.1,2020-6-09T15:13:00Z
2020-06-09T13:15:19Z,42.805,6.029,13.2975,4.59994,2470.077,2020-6-09T15:16:03Z
2020-06-09T13:18:22Z,42.805,6.029,13.2974,4.59987,2470.04,2020-6-09T15:19:06Z
2020-06-09T13:21:25Z,42.805,6.029,13.2979,4.59993,2470.017,2020-6-09T15:22:09Z
2020-06-09T13:24:29Z,42.805,6.029,13.2971,4.59989,2470.04,2020-6-09T15:25:13Z
2020-06-09T13:27:32Z,42.805,6.029,13.2973,4.59993,2470.04,2020-6-09T15:28:16Z
2020-06-09T13:30:35Z,42.805,6.029,13.2976,4.59987,2470.03,2020-6-09T15:31:19Z
2020-06-09T13:33:38Z,42.805,6.029,13.2985,4.59992,2470.11,2020-6-09T15:34:22Z
2020-06-09T13:36:42Z,42.805,6.029,13.2983,4.60003,2470.04,2020-6-09T15:37:26Z
2020-06-09T13:39:45Z,42.805,6.029,13.2987,4.60010,2470.03,2020-6-09T15:40:29Z
2020-06-09T13:42:48Z,42.805,6.029,13.2976,4.59990,2470.04,2020-6-09T15:43:32Z
2020-06-09T13:45:51Z,42.805,6.029,13.2983,4.59986,2470.04,2020-6-09T15:46:35Z
2020-06-09T13:48:55Z,42.805,6.029,13.2974,4.60000,2470.04,2020-6-09T15:49:39Z
2020-06-09T13:51:58Z,42.805,6.029,13.2974,4.59987,2470.04,2020-6-09T15:52:42Z
2020-06-09T13:55:01Z,42.805,6.029,13.2977,4.59987,2470.053,2020-6-09T15:55:45Z
2020-06-09T13:58:05Z,42.805,6.029,13.2973,4.59989,2470.04,2020-6-09T15:58:49Z
2020-06-09T14:01:08Z,42.805,6.029,13.2976,4.60009,2470.077,2020-6-09T16:01:52Z
2020-06-09T14:04:11Z,42.805,6.029,13.2976,4.59985,2470.04,2020-6-09T16:04:55Z
2020-06-09T14:07:14Z,42.805,6.029,13.2974,4.59986,2470.04,2020-6-09T16:07:58Z
2020-06-09T14:10:18Z,42.805,6.029,13.2974,4.59994,2470.017,2020-6-09T16:11:02Z
2020-06-09T14:13:21Z,42.805,6.029,13.2975,4.59982,2470.04,2020-6-09T16:14:05Z
2020-06-09T14:16:24Z,42.805,6.029,13.2979,4.59983,2470.03,2020-6-09T16:17:08Z
2020-06-09T14:19:27Z,42.805,6.029,13.2976,4.59995,2470.04,2020-6-09T16:20:11Z
2020-06-09T14:22:31Z,42.805,6.029,13.2977,4.59991,2470.017,2020-6-09T16:23:15Z
2020-06-09T14:25:34Z,42.805,6.029,13.2977,4.59993,2470.04,2020-6-09T16:26:18Z
2020-06-09T14:28:37Z,42.805,6.029,13.2979,4.59989,2470.04,2020-6-09T16:29:21Z
2020-06-09T14:31:40Z,42.805,6.029,13.2979,4.59992,2470.04,2020-6-09T16:32:24Z
2020-06-09T14:34:44Z,42.805,6.029,13.2979,4.59989,2470.053,2020-6-09T16:35:27Z
2020-06-09T14:37:47Z,42.805,6.029,13.2979,4.60012,2470.017,2020-6-09T16:38:31Z
2020-06-09T14:40:50Z,42.805,6.029,13.2978,4.60001,2470.017,2020-6-09T16:41:34Z
2020-06-09T14:43:53Z,42.805,6.029,13.2982,4.59998,2470.04,2020-6-09T16:44:37Z
2020-06-09T14:46:56Z,42.805,6.029,13.2986,4.59995,2470.03,2020-6-09T16:47:40Z
2020-06-09T14:50:00Z,42.805,6.029,13.2981,4.60003,2470.017,2020-6-09T16:50:44Z
2020-06-09T14:53:03Z,42.805,6.029,13.2974,4.59986,2469.993,2020-6-09T16:53:47Z
2020-06-09T14:56:06Z,42.805,6.029,13.2982,4.59995,2470.017,2020-6-09T16:56:50Z
2020-06-09T14:59:09Z,42.805,6.029,13.2980,4.60000,2470.007,2020-6-09T16:59:53Z
2020-06-09T15:02:13Z,42.805,6.029,13.2976,4.59992,2469.993,2020-6-09T17:02:56Z
2020-06-09T15:05:16Z,42.805,6.029,13.2970,4.59986,2470.007,2020-6-09T17:06:00Z
2020-06-09T15:08:19Z,42.805,6.029,13.2974,4.59981,2469.97,2020-6-09T17:09:03Z
2020-06-09T15:11:22Z,42.805,6.029,13.2976,4.59988,2470.017,2020-6-09T17:12:06Z
2020-06-09T15:14:25Z,42.805,6.029,13.2978,4.59992,2470.017,2020-6-09T17:15:09Z